Location: LDNL
(36.4545°S, 141.6685°E)
Time: 17:22:25
(UTC+10:00)

Courier 1B - Pass Details

Date: 14 August 2022
Orbit: 962 x 1209 km, 28.3° (Epoch: 25 September)

Event Time Altitude Azimuth Distance (km) Brightness Sun altitude
Exits shadow 03:39:27 12° 39° (NE) 2,948 10.1 -44.1°
Drops below altitude 10° 03:40:02 10° 42° (NE) 3,107 10.3 -44.0°
Sets 03:43:08 0° 51° (NE) 4,041 11.1 -43.4°
